Home   Weather   Limerick   Past weeks

Flag for Ireland Past Weather in Limerick, Ireland — Yesterday and Last 2 Weeks

Now
46 °F

Passing clouds.


Feels Like: 43 °F
Forecast: 40 / 50 °F
Wind: 7 mph from Southeast

Location: Shannon Airport

Current Time: Jan 18, 2017 at 4:19:24 am

Latest Report: Jan 18, 2017 at 3:30 am


Visibility: N/A

Pressure: 30.54 "Hg

Humidity: 93%

Dew Point: 45 °F

Location of LimerickLocation

Past Weather in Limerick — Graph

°F

Limerick Temperature Yesterday

Maximum temperature yesterday: 50 °F (at 12:00 pm)
Minimum temperature yesterday: 45 °F (at 2:30 am)
Average temperature yesterday: 47 °F

High & Low Weather Summary for the Past Weeks

 TemperatureHumidityPressure
High54 °F (Jan 6, 11:30 am)100% (Jan 3, 3:30 am)30.54 "Hg (Jan 3, 3:30 am)
Low27 °F (Jan 3, 3:30 am)61% (Jan 12, 11:30 pm)29.68 "Hg (Jan 12, 2:00 pm)
Average45 °F90%30.28 "Hg
* Reported Jan 3 3:00 am — Jan 18 3:00 am, Limerick, Weather by CustomWeather, © 2017

Note: Actual official high and low records may vary slightly from our data, if they occured in-between our weather recording intervals... More about our weather records

Advertising

Limerick Weather History for the Previous 24 Hours

Scroll right to see more
 ConditionsComfort  
Time TempWeatherWind HumidityBarometerVisibility
3:00 am
Wed, Jan 18
46 °FPassing clouds.7 mph93%30.54 "HgN/A
2:30 am46 °FPassing clouds.6 mph93%30.54 "HgN/A
2:00 am46 °FLight rain. Overcast.3 mph93%30.54 "HgN/A
1:30 am46 °FMostly cloudy.5 mph93%30.54 "HgN/A
1:00 am46 °FOvercast.5 mph87%30.54 "HgN/A
12:30 am48 °FPassing clouds.9 mph82%30.54 "HgN/A
12:00 am48 °FPassing clouds.8 mph82%30.54 "HgN/A
11:30 pm
Tue, Jan 17
46 °FPassing clouds.6 mph93%30.54 "HgN/A
11:00 pm46 °FPassing clouds.7 mph93%30.54 "HgN/A
10:30 pm46 °FPassing clouds.7 mph93%30.54 "HgN/A
10:00 pm46 °FPassing clouds.8 mph100%30.54 "HgN/A
9:30 pm46 °FPassing clouds.7 mph93%30.54 "HgN/A
9:00 pm46 °FPassing clouds.7 mph100%30.54 "HgN/A
8:30 pm48 °FPassing clouds.7 mph94%30.54 "HgN/A
8:00 pm48 °FMostly cloudy.8 mph94%30.54 "HgN/A
7:30 pm48 °FMostly cloudy.6 mph94%30.54 "HgN/A
7:00 pm48 °FDrizzle. Mostly cloudy.6 mph94%30.51 "Hg5 mi
6:30 pm48 °FPartly cloudy.6 mph94%30.51 "Hg4 mi
6:00 pm48 °FPartly cloudy.3 mph94%30.51 "Hg6 mi
5:30 pm48 °FDrizzle. Mostly cloudy.5 mph94%30.51 "Hg5 mi
5:00 pm48 °FPartly cloudy.3 mph87%30.51 "HgN/A
4:30 pm48 °FPartly sunny.1 mph87%30.51 "HgN/A
4:00 pm48 °FOvercast.3 mph87%30.51 "HgN/A
3:30 pm50 °FOvercast.2 mph82%30.51 "HgN/A
3:00 pm50 °FOvercast.3 mph82%30.51 "HgN/A
2:30 pm50 °FPartly sunny.5 mph82%30.51 "HgN/A
2:00 pm50 °FPartly sunny.5 mph82%30.51 "HgN/A
1:30 pm50 °FPartly sunny.6 mph88%30.51 "HgN/A
1:00 pm50 °FPartly sunny.2 mph88%30.51 "HgN/A
12:30 pm50 °FBroken clouds.5 mph88%30.51 "HgN/A
12:00 pm50 °FMostly cloudy.5 mph88%30.51 "HgN/A
11:30 am48 °FPartly sunny.5 mph94%30.51 "HgN/A
11:00 am48 °FBroken clouds.5 mph94%30.51 "HgN/A
10:30 am48 °FPartly sunny.3 mph94%30.51 "HgN/A
10:00 am46 °FPartly sunny.3 mph100%30.51 "HgN/A
9:30 am46 °FDrizzle. Partly sunny.3 mph100%30.51 "Hg6 mi
9:00 am46 °FPartly sunny.5 mph100%30.51 "Hg4 mi
8:30 am46 °FPassing clouds.5 mph100%30.48 "Hg4 mi
8:00 am46 °FPassing clouds.3 mph100%30.48 "Hg4 mi
7:30 am46 °FFog.1 mph100%30.48 "Hg2 mi
7:00 am46 °FFog.3 mph100%30.48 "Hg2 mi
6:30 am46 °FFog.3 mph100%30.48 "Hg2 mi
6:00 am46 °FFog.2 mph100%30.48 "Hg2 mi
5:30 am46 °FFog.5 mph100%30.48 "Hg1 mi
5:00 am46 °FFog.3 mph100%30.48 "Hg1 mi
4:30 am45 °FDrizzle. Fog.3 mph100%30.48 "Hg1 mi
4:00 am45 °FFog.2 mph100%30.48 "Hg1 mi
Weather by CustomWeather, © 2017

See weather overviewHow to use our weather pages